Location: Poughquag
(41.6090°N, 73.6820°W)
Time: 09:02:19
(UTC-05:00)

SR - Pass Details

Date: 14 December 2023
Orbit: 574 x 868 km, 66.7° (Epoch: 25 February)

Event Time Altitude Azimuth Distance (km) Brightness Sun altitude
Rises 15:59:24 0° 339° (NNW) 3,454 ? 3.2°
Reaches altitude 10° 16:02:59 10° 0° (N) 2,491 ? 2.6°
Maximum altitude 16:06:27 16° 37° (NE) 2,058 ? 2.1°
Drops below altitude 10° 16:09:49 10° 75° (ENE) 2,407 ? 1.6°
Sets 16:13:11 0° 96° (E) 3,279 ? 1.0°
